Weather in Rabat

Malta     35°52′51″N   14°24′03″E
temp.,
°C
wind,
m/s
gust,
m/s
humid.,
%
clouds,
%
prec.,
mm/h
press.,
hPa
HPBL,
m
10 may, mon
mon1023:00+18se45725 0.0 101972
02:00+18se45735 0.0 101886
05:00+18se457842 0.0 101892
08:00+19ese56775 0.0 1018162
11:00+19ese67750 0.0 1018248
14:00+20se78760 0.0 1017286
17:00+19se78820 0.0 1016285
20:00+19se68880 0.0 1016241
11 may, tue
tue1123:00+18ese610882 0.0 1015269
02:00+18se7119091 0.0 1014331
05:00+18se69902 0.0 1013309
08:00+19ese710860 0.0 1014307
11:00+19ese711825 0.0 1014336
14:00+20se7108022 0.0 1013330
17:00+19ese458179 0.0 1013167
20:00+19sw11850 0.0 101316
12 may, wed
wed1223:00+18nw6991100 0.0 1014301
02:00+18nw81279100 0.0 1013414
05:00+17nw111578100 0.0 1013644
08:00+17nw1315813 0.0 1014728
11:00+18nw1214770 0.0 1015830
14:00+18wnw1214720 0.0 1014801
17:00+18wnw1214760 0.0 1013633
20:00+17wnw1115800 0.0 1014584
13 may, thu
thu1323:00+18nw1114795 0.0 1014579
02:00+17nw811765 0.0 1014560
05:00+17wnw710765 0.0 1014527
08:00+18wnw811754 0.0 1015638
11:00+19wnw8117193 0.0 1015641
14:00+19wnw9126884 0.0 1015592
17:00+19wnw811680 0.0 1014505
20:00+18w58740 0.0 1015245
14 may, fri
fri1423:00+18w46742 0.0 1015175
02:00+18wsw457182 0.0 1015112
05:00+18w346735 0.0 101566
08:00+19sw34655 0.0 1016101
11:00+21ssw45540 0.0 1016143
14:00+22s45535 0.0 1016139
17:00+21sse67625 0.0 1015175
20:00+20se5775100 0.0 1015134